Flag for Switzerland Weather past 2 weeks in Zürich, Zurich, Switzerland

Now
40 °F

Quite cool.


Feels Like: 32 °F
Forecast: 29 / 51 °F
Wind: 16 mph from Southwest

Location: Zurich Town / Ville.

Current Time: Apr 2, 2015 at 7:12:38 AM

Latest Report: Apr 2, 2015 at 6:00 AM


Visibility: N/A

Pressure: 30.16 "Hg

Humidity: 60%

Dew point: 28 °F

Location of ZürichLocation

Historic Weather in Zürich — Graph

°F

Zürich temperature yesterday

Maximum temperature yesterday: 47 °F (at 12:00 AM)
Minimum temperature yesterday: 36 °F (at 2:00 PM)
Average temperature yesterday: 40 °F

Past Weeks' High & Low Weather Summary

 TemperatureHumidityPressure
High62 °F (Mar 18, 2:40 PM)97% (Mar 22, 1:00 AM)30.33 "Hg (Mar 22, 1:00 AM)
Low35 °F (Mar 22, 5:00 AM)34% (Mar 24, 5:00 PM)29.59 "Hg (Mar 25, 2:00 PM)
Average46 °F71%30.01 "Hg
* Reported Mar 18 5:00 AM — Apr 2 5:00 AM, Zürich, Weather by CustomWeather, © 2015

Note: Actual official high and low records may vary slightly from our data, if they occured in-between our weather recording intervals... More about our weather records

Advertising

Zürich weather history for previous 24 hours

 ConditionsComfort  
Time TempWeatherWind HumidityBarometerVisibility
5:00 AM
Thu, Apr 2
40 °FQuite cool.18 mph61%30.19 "HgN/A
4:00 AM41 °FQuite cool.13 mph60%30.22 "HgN/A
3:00 AM40 °FQuite cool.12 mph62%30.25 "HgN/A
2:00 AM40 °FQuite cool.13 mph64%30.28 "HgN/A
1:00 AM40 °FQuite cool.13 mph63%30.30 "HgN/A
12:00 AM40 °FChilly.13 mph65%30.32 "HgN/A
11:00 PM
Wed, Apr 1
40 °FChilly.13 mph61%30.33 "HgN/A
10:00 PM40 °FQuite cool.13 mph59%30.33 "HgN/A
9:00 PM41 °FQuite cool.12 mph55%30.32 "HgN/A
8:00 PM40 °FQuite cool.14 mph59%30.31 "HgN/A
7:00 PM42 °FQuite cool.15 mph55%30.29 "HgN/A
6:00 PM42 °FQuite cool.12 mph61%30.27 "HgN/A
5:00 PM42 °FQuite cool.12 mph66%30.27 "HgN/A
4:00 PM38 °FChilly.18 mph80%30.28 "HgN/A
3:00 PM40 °FChilly.10 mph80%30.26 "HgN/A
2:00 PM36 °FPartly sunny.13 mph87%30.28 "HgN/A
1:00 PM37 °FChilly.10 mph87%30.27 "HgN/A
12:00 PM39 °FChilly.12 mph88%30.24 "HgN/A
11:00 AM39 °FChilly.15 mph76%30.25 "HgN/A
10:00 AM37 °FChilly.18 mph71%30.24 "HgN/A
9:00 AM42 °FQuite cool.20 mph54%30.18 "HgN/A
8:00 AM40 °FScattered clouds.20 mph57%30.16 "HgN/A
7:00 AM41 °FQuite cool.12 mph63%30.14 "HgN/A
Weather by CustomWeather, © 2015

See weather overviewHow to use our weather pages